Regional Weather Roundup
Issued by NWS

Home | Current Version | Previous Version | Graphics & Text | Print | Product List | Glossary On
Versions: 1 2 3 4 5 6 7 8 9 10 11 12 13 14 15 16 17 18 19 20 21 22 23 24 25 26 27 28 29 30 31 32 33 34 35 36 37 38 39 40 41 42 43 44 45 46 47 48 49 50
000
ASUS43 KLMK 042202
RWRKY
KENTUCKY REGIONAL WEATHER ROUNDUP
NATIONAL WEATHER SERVICE LOUISVILLE KY
500 PM EST SUN DEC 04 2016

NOTE "FAIR" INDICATES FEW OR NO CLOUDS BELOW 12,000 FEET
WITH NO SIGNIFICANT WEATHER AND/OR OBSTRUCTIONS TO VISIBILITY.

KYZ001>023-026-027-061>063-070>075-042300-
WESTERN AND SOUTH CENTRAL KENTUCKY

CITY           SKY/WX    TMP DP  RH WIND       PRES   REMARKS
PADUCAH        CLOUDY    46  42  86 W8        29.96R
HENDERSON      CLOUDY    45  39  81 SW10      29.92F
OWENSBORO      LGT RAIN  45  44  97 SW6       29.94F FOG
HOPKINSVILLE   CLOUDY    46  46 100 W7        29.95S
BOWLING GREEN  CLOUDY    48  46  93 SW7       29.95R FOG
GLASGOW        NOT AVBL
$$

KYZ024-025-028>034-038-045-046-053-042300-
NORTH CENTRAL KENTUCKY

CITY           SKY/WX    TMP DP  RH WIND       PRES   REMARKS
LOUISVILLE/SDF LGT RAIN  47  44  90 S3        29.92R FOG
LOUISVILLE/LOU LGT RAIN  47  44  90 S5        29.93R FOG
FORT KNOX      DRIZZLE   45  45  99 S6        29.90R FOG
$$

KYZ035>037-039>044-047>052-055>060-089>105-042300-
NORTHEAST KENTUCKY

CITY           SKY/WX    TMP DP  RH WIND       PRES   REMARKS
LEXINGTON      LGT RAIN  44  42  93 SE5       29.91F FOG
COVINGTON      DRIZZLE   41  37  86 SE7       29.91S
FRANKFORT      CLOUDY    45  42  89 SE6       29.90F FOG
$$

KYZ054-064>069-076>088-106>120-042300-
SOUTHEAST KENTUCKY

CITY           SKY/WX    TMP DP  RH WIND       PRES   REMARKS
JACKSON        LGT RAIN  42  40  92 VRB5      29.91F
LONDON         LGT RAIN  45  43  93 S3        29.92F FOG
SOMERSET       NOT AVBL
MIDDLESBORO    DRIZZLE   45  45  97 CALM      29.97S
MONTICELLO     LGT RAIN  46  44  93 VRB5      29.94S FOG
$$





USA.gov is the U.S. government's official web portal to all federal, state and local government web resources and services.